Theta_e
296 297 295 297 298 296 295 295 294 291 294 298 300 305 307 308 308 310 312 306 307 307 305 307 315 318 321 321 321 322 323 324 324 324 325 325 326 327
291 294 295 297 296 297 296 294 296 295 294 299 302 304 306 306 307 312 312 308 306 305 303 307 313 316 315 316 316 317 319 320 321 322 322 323 325 325
287 288 291 295 294 296 296 294 295 296 294 297 301 304 306 307 307 311 312 314 317 305 303 307 309 310 311 313 313 313 314 315 317 318 320 321 323 324
286 286 286 292 293 295 295 293 294 296 296 293 299 302 304 308 309 310 310 314 318 306 305 306 306 307 307 308 308 309 309 310 312 313 314 317 319 320
288 285 286 287 290 293 294 293 293 294 296 295 296 302 305 306 308 310 313 317 317 306 304 305 305 306 306 306 307 306 306 306 307 307 308 309 311 313
287 288 286 287 290 293 293 293 293 293 294 295 297 300 303 306 307 306 311 312 311 313 311 312 309 306 305 305 306 305 305 305 304 304 303 302 303 306
286 287 288 291 291 292 293 293 292 293 294 296 297 300 301 303 304 308 311 311 313 316 314 313 316 316 310 307 306 304 303 303 303 303 302 301 300 302
285 286 290 290 291 290 290 291 293 294 295 297 298 299 302 304 307 309 307 310 309 317 316 316 318 315 319 320 303 301 301 301 301 301 300 299 298 297
286 287 288 290 290 290 289 289 289 290 288 299 300 302 303 306 308 308 307 309 306 306 306 301 303 299 305 304 299 299 299 298 298 297 296 295 294 293
287 287 287 289 290 291 291 293 295 297 299 301 304 305 307 309 311 309 308 308 308 307 307 295 297 294 297 298 297 299 297 296 296 295 294 293 292 291
289 290 290 290 289 290 292 292 294 296 291 292 292 293 294 298 305 308 306 308 301 300 305 299 294 291 291 291 295 295 295 294 294 294 293 292 292 291
289 290 288 291 288 288 293 293 293 295 296 299 302 300 301 304 296 310 310 304 304 300 301 299 295 295 288 290 289 294 294 292 293 294 294 295 296 300
289 290 291 287 288 289 291 296 295 297 293 302 304 306 306 302 303 303 309 313 312 299 302 303 297 294 290 287 288 288 292 293 294 293 291 293 294 298
289 290 289 288 288 287 291 288 288 291 298 295 298 296 294 294 295 296 298 300 304 309 308 314 308 304 293 288 287 287 287 289 291 291 290 290 289 288
291 289 287 287 287 287 287 287 288 299 293 292 291 288 290 294 297 297 298 297 293 292 306 309 310 308 300 290 287 287 287 285 287 288 288 287 287 289
286 289 287 287 288 290 292 294 295 295 295 292 289 292 294 296 297 299 296 296 292 288 288 290 302 303 295 294 290 286 288 287 285 285 285 285 284 285
291 294 294 294 294 294 293 291 294 297 295 293 293 293 294 295 294 298 299 298 292 288 286 286 287 287 288 288 286 286 285 285 285 285 285 282 283 284
292 292 290 290 290 289 290 292 294 292 294 293 294 294 294 293 293 295 296 295 290 288 287 288 290 291 290 287 287 285 285 285 285 285 285 284 282 283
292 291 290 289 289 291 292 293 292 292 295 295 293 293 293 294 294 294 291 291 289 289 289 288 289 294 289 284 285 285 285 286 285 284 285 285 284 284
292 291 290 291 291 292 294 293 291 292 292 294 293 293 294 293 292 294 294 291 290 291 289 289 289 290 291 287 285 283 285 285 285 284 284 284 283 282
293 292 292 291 291 292 292 292 290 290 291 291 292 292 293 294 292 292 291 289 290 291 287 284 285 286 287 288 285 282 282 284 287 291 290 289 286 284
290 290 291 292 291 291 292 290 290 290 290 291 290 291 293 295 292 292 292 291 289 288 285 285 287 289 288 287 283 282 282 282 282 282 282 284 289 287
287 287 288 289 289 291 291 291 289 288 290 291 291 291 289 291 290 289 288 288 288 286 287 286 287 288 287 286 285 286 282 283 284 283 284 282 281 281
Wind_Speed
12 15 12 10 10 10 7 8 9 8 8 5 6 6 6 5 6 9 7 10 5 5 7 8 13 20 23 21 19 21 22 20 18 18 16 15 14 14
9 14 15 12 11 10 8 9 9 9 7 8 5 9 6 6 6 6 4 2 6 3 7 9 20 21 18 19 19 16 18 17 17 16 14 13 14 12
10 10 14 15 10 10 11 10 10 9 4 4 6 6 8 7 7 6 4 5 7 1 8 19 20 22 19 20 21 17 17 18 17 16 15 14 14 12
11 10 11 12 16 15 11 14 10 10 6 9 7 8 8 6 5 5 5 2 1 4 12 18 19 24 22 19 19 18 17 17 17 16 15 14 13 11
13 13 13 14 14 11 13 12 10 9 7 6 8 7 6 5 5 3 5 3 1 9 14 21 21 23 23 20 18 18 17 17 16 15 14 13 12 10
11 11 14 16 18 17 15 16 10 10 9 7 8 7 7 6 5 6 6 2 3 6 12 16 21 23 21 20 17 17 17 16 16 15 14 13 12 11
9 13 11 15 17 17 13 13 14 11 8 8 8 8 8 6 6 5 5 3 6 4 8 11 14 12 13 17 14 17 17 16 16 15 14 13 12 11
9 9 11 23 19 17 11 14 15 12 10 8 9 9 10 8 6 6 2 6 5 2 9 11 10 9 10 10 16 17 18 17 16 15 15 14 15 15
10 11 10 11 19 13 17 9 7 4 1 10 11 9 9 9 7 6 1 3 6 7 14 11 10 9 9 9 16 18 18 18 19 19 20 18 18 19
11 11 11 15 16 15 16 17 15 9 7 8 7 8 5 7 6 3 6 11 11 8 13 9 4 8 9 9 14 21 20 20 21 21 22 22 23 21
12 13 13 14 19 20 16 17 17 11 5 8 8 8 7 7 8 6 8 14 7 3 5 9 2 8 8 9 11 19 20 22 20 21 22 24 25 23
12 14 13 17 13 11 16 16 15 12 10 8 7 4 5 7 5 3 5 12 11 8 2 6 4 4 6 4 8 8 11 21 21 19 16 12 14 11
11 11 11 13 9 3 10 13 10 10 6 7 5 7 7 5 5 7 8 7 11 5 2 6 4 4 6 5 4 7 5 7 9 12 19 16 14 9
11 11 12 13 9 7 5 11 6 6 5 1 4 6 5 6 6 8 9 12 12 12 8 12 8 10 6 4 4 3 7 8 7 8 8 14 21 22
10 15 18 14 9 8 10 8 5 5 2 5 6 3 3 6 9 11 13 19 18 13 10 9 11 15 9 4 6 2 4 6 6 7 7 7 5 3
13 10 8 8 8 7 7 6 4 3 6 6 5 3 3 5 8 8 11 10 13 10 16 16 11 13 11 9 7 6 5 4 3 6 7 7 6 6
12 10 10 9 8 7 5 4 3 6 7 6 6 6 7 8 7 5 7 9 10 7 9 10 16 19 15 9 8 6 7 6 4 4 5 6 6 5
9 9 7 7 6 4 4 6 6 7 6 6 6 6 7 7 8 7 9 11 12 9 11 8 11 13 8 12 18 6 5 4 3 5 2 4 4 3
8 8 7 6 5 4 5 7 6 5 6 6 6 6 8 7 9 9 8 10 10 9 8 2 2 10 9 4 2 15 3 2 3 3 3 1 4 3
7 6 6 6 5 5 6 6 6 5 6 7 7 6 6 8 8 9 8 11 10 9 7 5 5 3 6 7 6 3 12 2 2 2 3 3 4 6
6 6 5 6 5 6 6 6 6 5 5 6 6 6 5 8 8 8 9 10 11 8 8 5 3 8 10 8 6 3 4 10 7 3 7 5 4 3
6 6 5 5 6 6 6 6 6 6 6 6 7 6 6 7 9 9 8 10 8 7 8 5 3 3 3 4 9 9 6 5 9 13 11 5 1 4
5 5 5 5 5 5 5 6 6 6 6 6 7 7 6 8 7 8 8 8 10 9 8 7 5 7 7 7 10 8 11 7 4 5 5 7 8 9
Wind_Direction
222 221 208 207 206 203 224 222 233 201 193 177 175 197 190 166 152 195 219 153 212 254 271 242 196 148 143 144 143 147 146 145 144 144 144 146 141 144
226 218 202 194 203 203 193 216 224 249 198 154 198 171 184 187 136 227 192 228 176 283 263 192 133 121 123 137 132 146 135 134 134 135 137 138 134 141
203 199 193 189 191 196 196 207 217 224 224 164 181 168 185 188 161 214 189 228 151 26 175 161 135 133 139 146 140 143 134 132 132 134 134 132 137 141
172 169 175 187 187 195 189 196 208 206 190 182 182 172 186 177 171 194 207 172 170 159 162 141 131 135 135 139 134 135 130 130 129 132 133 128 134 140
185 186 190 192 195 193 185 183 190 204 206 204 179 181 145 191 187 197 201 111 87 156 160 141 138 134 133 132 136 131 128 126 130 128 126 130 132 129
171 172 176 178 181 172 180 182 175 198 194 197 174 177 175 162 207 182 169 68 105 148 169 144 141 133 133 130 134 129 129 127 128 123 125 127 124 122
157 179 175 166 155 167 175 168 176 189 189 193 187 177 172 163 181 171 107 132 129 142 133 130 143 139 128 127 122 121 121 123 120 118 120 117 117 109
145 143 143 168 163 154 155 165 181 179 189 183 183 175 160 166 168 162 116 154 129 90 118 121 112 116 130 140 114 120 116 113 111 108 99 90 89 89
139 133 140 139 148 154 160 167 114 35 336 173 180 169 160 154 174 120 18 101 92 103 102 73 75 69 58 87 114 111 105 103 99 98 94 89 87 82
133 137 140 145 153 148 161 162 162 170 152 188 165 150 143 153 138 95 109 98 84 74 110 88 64 69 61 51 48 101 104 104 104 104 101 97 89 81
132 131 143 140 153 159 161 158 164 158 76 31 23 18 338 26 98 118 137 116 97 35 63 97 80 88 61 44 46 73 93 95 99 102 106 107 99 92
126 122 126 132 138 173 159 160 161 157 147 158 168 178 160 79 45 123 146 112 125 105 6 103 133 115 78 24 37 53 78 83 87 92 99 105 111 106
118 122 119 114 128 148 161 157 144 145 132 148 127 116 79 68 56 46 85 139 131 97 101 108 124 91 75 101 41 30 53 76 87 77 66 62 62 97
115 116 121 117 98 59 82 90 89 129 109 84 100 76 78 69 61 63 68 68 61 102 131 152 116 121 113 102 97 33 42 46 67 85 85 76 70 64
100 97 101 102 116 99 85 91 146 98 85 87 82 54 61 110 100 93 85 80 68 42 56 77 114 116 100 106 123 115 106 30 40 81 75 64 55 46
100 111 102 106 79 105 120 86 72 83 100 98 89 80 55 79 91 105 95 91 84 55 43 42 70 105 96 90 102 98 87 118 66 68 84 72 63 56
127 130 122 112 102 92 75 60 77 87 94 92 96 89 90 95 78 88 93 85 96 105 83 68 69 71 68 68 83 83 100 92 87 89 81 88 52 56
92 86 80 85 78 58 69 82 77 79 88 90 87 91 96 95 93 83 93 99 108 109 106 108 113 102 77 55 40 89 78 90 96 85 79 94 94 77
79 80 80 79 80 77 80 83 81 71 89 86 90 89 93 94 98 97 96 105 96 104 108 75 94 122 112 99 50 29 68 67 103 81 50 39 109 145
68 75 80 82 76 78 83 91 86 69 69 83 80 83 92 107 106 105 105 111 111 113 91 51 45 42 119 147 133 84 31 79 70 87 98 72 80 97
82 69 66 74 76 79 77 78 76 75 76 88 83 81 82 101 99 101 103 105 114 108 92 73 45 91 101 103 94 93 44 42 51 167 153 128 118 143
69 77 72 77 73 80 88 89 91 87 86 86 83 77 82 96 104 106 107 109 90 92 98 100 77 70 59 94 114 116 117 86 66 71 65 57 185 166
50 64 58 64 64 77 87 95 92 86 86 89 88 90 92 99 93 92 95 101 112 109 116 106 83 73 84 109 116 120 122 138 132 104 79 35 58 64